格洛纳斯-752 COSMOS 2081 [GLONASS]

导读

COSMOS 2081是苏联(CIS)于1990年5月19日发射的GLONASS全球导航卫星系统组网卫星。作为早期格洛纳斯星座的成员,它承担着全球定位、导航与授时服务任务,是苏联推进独立卫星导航体系建设的重要节点。该卫星加入轨道组网后,进一步扩充了GLONASS系统的覆盖能力,为后续GNSS发展积累了关键技术经验,是全球导航卫星发展历程中的重要组成部分。

基本信息
目录编号:
20621
目录名称:
COSMOS 2081 (GLONASS)
国际标识:
1990-045C
轨道中心:
EARTH
卫星名称:
格洛纳斯-752
卫星全名:
格洛纳斯-752 COSMOS 2081 [GLONASS]
卫星状态:
在轨 (已飞行13173 天)
发射日期:
1990-05-19 UTC
国别 :
俄罗斯(独联体) (CIS)
星等 :
--
轨道信息
数据来源 国际轨道数据 AOE轨道数据
星历时间 2026-06-10T15:51:21+0800
2天前
查看轨道信息
2026-06-12T02:00:00+0800
1天前
查看轨道信息
半长轴 25507.801km 25507.778km
偏心率 0.0046153 0.0046309
轨道倾角 64.736° 64.735°
近地点辐角 212.918° 212.852°
升交点赤经 308.885° 308.835°
平近点角 143.404° 154.908°
近地点 19011.937km 19011.517km
远地点 19247.391km 19247.765km
周期 675.724分钟 675.723分钟
每日圈数 2.131048 2.131051
详细信息
平衡模式:
三轴稳定
覆盖范围:
全球
运营商:
列舍特涅夫卫星信息系统
运营商所在国:
俄罗斯
制造商(研发单位):
列舍特涅夫卫星信息系统
制造商所在国:
俄罗斯
使用方式:
暂无
卫星简介
格洛纳斯(GLONASS )是苏联/俄罗斯研制卫星导航系统。标准配置为24颗卫星,其中18颗卫星就能保证该系统为俄罗斯境内用户提供全部服务。该卫星已退役。
2D轨道图
3D轨道图
轨道高度分析图
轨道倾角分析图
轨道综合分析图
查看轨道综合分析图